Miscellaneous Local Product
Issued by NWS Hastings, NE

Home | Current Version | Previous Version | Text Only | Print | Product List | Glossary On
Versions: 1 2 3 4 5 6 7 8 9 10 11 12 13 14 15 16 17 18 19 20 21 22 23 24 25 26 27 28 29 30 31 32 33 34 35 36 37 38 39 40 41 42 43 44 45 46 47 48 49 50
076
AXUS43 KGID 241402
MISGRI

GID CWA HOURLY WEATHER ROUNDUP
NATIONAL WEATHER SERVICE HASTINGS NE
900 AM CDT TUE APR 24 2018

NOTE: "FAIR" INDICATES FEW OR NO CLOUDS BELOW 12,000 FEET WITH NO
SIGNIFICANT WEATHER AND/OR OBSTRUCTIONS TO VISIBILITY.

...SOUTH CENTRAL NEBRASKA...

CITY           SKY/WX    TMP DP  RH WIND       PRES   REMARKS
GRAND ISLAND   CLOUDY    51  44  77 NW18G31   30.20R
KEARNEY        CLOUDY    47  41  80 NW16      30.23R
HASTINGS       CLOUDY    54  47  77 NW22G29   30.20R
ORD            LGT RAIN  44  41  89 NW21      30.22R
YORK             N/A     55  32  41 CALM      30.18R
AURORA         CLOUDY    55  41  58 NW17      30.18R
LEXINGTON      LGT RAIN  44  40  85 NW21G26   30.27R
HOLDREGE       CLOUDY    47  43  84 N14G20    30.23R
HEBRON         CLOUDY    52  42  68 CALM      30.16F

...NEBRASKA PANHANDLE...

CITY           SKY/WX    TMP DP  RH WIND       PRES   REMARKS
CHADRON        CLOUDY    37  30  75 N20G36    30.45R WCI  27
ALLIANCE       FLURRIES  34  33  96 N26G35    30.39R WCI  21
SCOTTSBLUFF    CLOUDY    38  32  79 N17       30.43R WCI  28
SIDNEY         LGT SNOW  35  32  88 N23G30    30.37R FOG     WCI  23

...WESTERN AND NORTH CENTRAL NEBRASKA...

CITY           SKY/WX    TMP DP  RH WIND       PRES   REMARKS
VALENTINE      CLOUDY    41  37  86 NW21G35   30.28R
AINSWORTH      CLOUDY    40  39  95 NW18G28   30.25R WCI  31
ONEILL         CLOUDY    47  43  84 W20G26    30.22R
BROKEN BOW     LGT RAIN  42  39  89 NW22G32   30.23R
IMPERIAL       CLOUDY    40  37  89 NW20G31   30.33R WCI  30
NORTH PLATTE   CLOUDY    41  37  86 N15G26    30.30R
MCCOOK         LGT RAIN  43  40  89 NW22G31   30.28R FOG

...EASTERN NEBRASKA...

CITY           SKY/WX    TMP DP  RH WIND       PRES   REMARKS
NORFOLK        PTSUNNY   52  42  69 CALM      30.15S
SO SIOUX CITY  CLOUDY    50  42  74 CALM      30.16R
TEKAMAH        MOSUNNY   56  43  61 VRB3      30.16R
COLUMBUS       CLOUDY    52  39  61 W9        30.18R
ALBION         CLOUDY    49  44  81 NW15      30.19R
OMAHA EPPLEY   PTSUNNY   53  40  61 NW5       30.16R
OFFUTT AFB     SUNNY     55  40  57 CALM      30.15R
MILLARD        SUNNY     57  41  55 CALM      30.15S
LINCOLN        MOSUNNY   51  38  60 MISG      30.17R
NEBRASKA CITY  SUNNY     56  37  49 CALM      30.15R
BEATRICE       MOSUNNY   53  40  61 W3        30.16S
FALLS CITY     SUNNY     53  38  56 NW3       30.14R

...NORTHERN KANSAS...

CITY           SKY/WX    TMP DP  RH WIND       PRES   REMARKS
GOODLAND       LGT RAIN  38  37  97 N22G32    30.31R WCI  27
HILL CITY      CLOUDY    48  46  93 NW20G26   30.23R
NORTON         LGT RAIN  46  45  93 NW17      30.24R
PHILLIPSBURG   DRIZZLE   54  45  71 NW14      30.20R
SMITH CENTER   SUNNY     52  43  71 NW8       30.20
BELOIT         SUNNY     48  41  76 CALM      30.18R
HAYS           CLOUDY    54  46  74 NW8       30.20S
RUSSELL        CLOUDY    51  46  83 NW6       30.17R
CONCORDIA      MOSUNNY   55  39  54 MISG      30.16R
SALINA         SUNNY     56  46  69 NW5       30.17R
TOPEKA         SUNNY     56  40  55 CALM      30.14R



USA.gov is the U.S. government's official web portal to all federal, state and local government web resources and services.